Location: Holbach
(51.5399°N, 10.6036°E)
Time: 16:00:06
(UTC+00:00)

Cosmos 1634 Rocket - Pass Details

Date: 18 September 2020
Orbit: 961 x 991 km, 82.9° (Epoch: 21 October)

Event Time Altitude Azimuth Distance (km) Brightness Sun altitude
Exits shadow 19:34:25 29° 155° (SSE) 1,693 4.8 -20.1°
Maximum altitude 19:37:26 54° 92° (E) 1,161 4.0 -20.5°
Drops below altitude 10° 19:43:26 10° 17° (NNE) 2,718 6.5 -21.3°
Sets 19:46:00 0° 13° (NNE) 3,673 7.3 -21.6°
